TimeCDT,TemperatureF,Dew PointF,Humidity,Sea Level PressureIn,VisibilityMPH,Wind Direction,Wind SpeedMPH,Gust SpeedMPH,PrecipitationIn,Events,Conditions,WindDirDegrees,DateUTC
12:53 AM,59.0,54.0,83,29.98,10.0,Calm,Calm,-,N/A,,Mostly Cloudy,0,2013-04-17 05:53:00
1:53 AM,57.9,54.0,87,29.96,10.0,Calm,Calm,-,N/A,,Mostly Cloudy,0,2013-04-17 06:53:00
2:53 AM,57.9,54.0,87,29.95,10.0,Calm,Calm,-,N/A,,Overcast,0,2013-04-17 07:53:00
3:33 AM,64.4,60.8,88,29.97,10.0,Calm,Calm,-,N/A,,Scattered Clouds,0,2013-04-17 08:33:00
3:53 AM,64.0,60.1,87,29.94,9.0,Calm,Calm,-,N/A,,Scattered Clouds,0,2013-04-17 08:53:00
4:53 AM,68.0,63.0,84,29.93,10.0,ESE,6.9,-,N/A,,Mostly Cloudy,110,2013-04-17 09:53:00
5:53 AM,66.9,63.0,87,29.93,9.0,ESE,5.8,-,N/A,,Mostly Cloudy,110,2013-04-17 10:53:00
6:53 AM,68.0,64.0,87,29.93,7.0,SE,6.9,-,N/A,,Partly Cloudy,130,2013-04-17 11:53:00
7:53 AM,71.1,64.9,81,29.94,9.0,SSE,5.8,-,N/A,,Clear,160,2013-04-17 12:53:00
8:51 AM,73.4,64.4,73,29.97,10.0,SSE,17.3,-,N/A,,Mostly Cloudy,160,2013-04-17 13:51:00
8:53 AM,73.4,64.4,73,29.97,10.0,SSE,13.8,-,N/A,,Overcast,160,2013-04-17 13:53:00
9:19 AM,73.4,64.4,73,29.96,10.0,South,17.3,-,N/A,,Scattered Clouds,170,2013-04-17 14:19:00
9:53 AM,73.9,64.9,73,29.93,10.0,South,16.1,-,N/A,,Mostly Cloudy,170,2013-04-17 14:53:00
10:37 AM,75.2,66.2,73,29.96,10.0,South,16.1,20.7,N/A,,Overcast,170,2013-04-17 15:37:00
10:53 AM,75.0,64.9,71,29.92,10.0,South,11.5,-,N/A,,Overcast,180,2013-04-17 15:53:00
11:53 AM,77.0,64.9,66,29.91,10.0,South,13.8,-,N/A,,Mostly Cloudy,180,2013-04-17 16:53:00
12:53 PM,77.0,64.9,66,29.89,10.0,South,12.7,26.5,N/A,,Mostly Cloudy,180,2013-04-17 17:53:00
1:53 PM,79.0,64.0,60,29.86,10.0,SSE,17.3,-,N/A,,Partly Cloudy,160,2013-04-17 18:53:00
2:53 PM,79.0,63.0,58,29.82,10.0,SSE,21.9,27.6,N/A,,Clear,160,2013-04-17 19:53:00
3:53 PM,82.9,63.0,51,29.78,10.0,SSE,20.7,27.6,N/A,,Clear,160,2013-04-17 20:53:00
4:53 PM,82.9,63.0,51,29.74,10.0,SSE,18.4,29.9,N/A,,Clear,160,2013-04-17 21:53:00
5:53 PM,81.0,62.1,52,29.73,10.0,SSE,23.0,32.2,N/A,,Clear,160,2013-04-17 22:53:00
6:53 PM,78.1,62.1,58,29.72,10.0,SSE,17.3,-,N/A,,Clear,160,2013-04-17 23:53:00
7:53 PM,77.0,62.1,60,29.71,10.0,SSE,20.7,-,N/A,,Clear,150,2013-04-18 00:53:00
8:53 PM,75.9,62.1,62,29.70,10.0,SSE,20.7,26.5,N/A,,Clear,160,2013-04-18 01:53:00
9:53 PM,75.0,62.1,64,29.70,10.0,SSE,12.7,23.0,N/A,,Clear,160,2013-04-18 02:53:00
10:53 PM,75.0,63.0,66,29.68,10.0,SSE,15.0,-,N/A,,Mostly Cloudy,160,2013-04-18 03:53:00
11:53 PM,75.0,63.0,66,29.65,10.0,South,20.7,29.9,N/A,,Mostly Cloudy,180,2013-04-18 04:53:00